Location: Namasale
(1.5000°N, 32.6167°E)
Time: 22:59:03
(UTC+00:00)

Transit 2A - Pass Details

Date: 26 April 2021
Orbit: 602 x 957 km, 66.7° (Epoch: 11 May)

Event Time Altitude Azimuth Distance (km) Brightness Sun altitude
Rises 00:48:59 0° 169° (S) 3,419 - -42.6°
Reaches altitude 10° 00:52:37 10° 147° (SSE) 2,404 - -41.7°
Maximum altitude 00:55:42 15° 113° (ESE) 1,992 - -41.0°
Exits shadow 00:56:33 15° 102° (ESE) 2,002 8.6 -40.8°
Drops below altitude 10° 00:58:39 10° 78° (ENE) 2,262 9.1 -40.3°
Sets 01:01:52 0° 55° (NE) 3,104 10.0 -39.5°
